Regional Weather Roundup
Issued by NWS

Home | Current Version | Previous Version | Graphics & Text | Print | Product List | Glossary Off
Versions: 1 2 3 4 5 6 7 8 9 10 11 12 13 14 15 16 17 18 19 20 21 22 23 24 25 26 27 28 29 30 31 32 33 34 35 36 37 38 39 40 41 42 43 44 45 46 47 48 49 50

085
ASUS43 KDMX 201901
RWRIA

WEATHER ROUNDUP FOR IOWA
NATIONAL WEATHER SERVICE DES MOINES IA
200 PM CDT FRI APR 20 2018

NOTE: "FAIR" INDICATES FEW OR NO CLOUDS BELOW 12,000 FEET WITH NO
SIGNIFICANT WEATHER AND/OR OBSTRUCTIONS TO VISIBILITY.

* - THESE STATIONS ARE NOT NWS STATIONS...THUS NOT UNDER NWS
QUALITY CONTROL.  THEY ALSO DO NOT REPORT WEATHER SUCH
AS PRECIPITATION OR FOG.

IAZ001>003-012>014-020>022-031>034-043>046-202000-
   NORTHWEST IOWA

CITY           SKY/WX    TMP DP  RH WIND       PRES   REMARKS
CARROLL *      CLOUDY    54  32  43 E8G15     30.40F
CHEROKEE *     PTSUNNY   45  37  74 E9        30.41F
DENISON *      CLOUDY    55  30  38 SE10G17   30.40F
LE MARS *      PTSUNNY   52  34  50 SE13      30.38F
ORANGE CITY *  CLOUDY    46  37  71 E6        30.40F
SHELDON *      MOSUNNY   46  37  71 SE9       30.39F
SIOUX CITY     CLOUDY    56  34  43 SE14G23   30.37F
SPENCER        CLOUDY    41  31  67 E6        30.43F
STORM LAKE *   CLOUDY    48  36  61 SE8       30.41S
$$

IAZ055>058-069>071-079>083-090>094-202000-
   SOUTHWEST IOWA

CITY           SKY/WX    TMP DP  RH WIND       PRES   REMARKS
ATLANTIC *     PTSUNNY   57  27  30 S13G21    30.37F
AUDUBON *      CLOUDY    57  27  30 SE7       30.40F
CLARINDA *     CLOUDY    61  27  27 SE10G18   30.39F
COUNCIL BLFS * PTSUNNY   57  30  35 SE16G24   30.35F
CRESTON *      CLOUDY    57  28  33 SE13      30.41F
HARLAN  *      CLOUDY    57  28  33 SE13G21   30.40F
LAMONI         CLOUDY    57  27  31 SE9       30.40F
RED OAK *      CLOUDY    61  28  29 SE12G18   30.37F
SHENANDOAH *   CLOUDY    61  28  29 SE14G24   30.36F
$$

IAZ047>049-059>061-072>074-084-202000-
   CENTRAL IOWA

CITY           SKY/WX    TMP DP  RH WIND       PRES   REMARKS
AMES           CLOUDY    56  28  34 S9        30.43F
ANKENY *       CLOUDY    57  27  30 VRB7G14   30.43F
BOONE *        MOSUNNY   55  30  38 SE8       30.41F
CHARITON *     CLOUDY    57  28  33 SE9       30.42F
DES MOINES     CLOUDY    58  28  32 SE9       30.43F
GRINNELL*      CLOUDY    56  27  32 E7        30.45F
KNOXVILLE *    CLOUDY    59  25  27 SE8       30.41F
MARSHALLTOWN   PTSUNNY   55  28  35 CALM      30.43F
NEWTON *       CLOUDY    57  27  30 SE7G15    30.44S
PELLA *        CLOUDY    58  25  28 SE5       30.45S
$$

IAZ004>006-015-016-023>025-035-036-202000-
   NORTH CENTRAL IOWA

CITY           SKY/WX    TMP DP  RH WIND       PRES   REMARKS
ALGONA *       MOSUNNY   41  30  65 E9        30.45F
CLARION *      MOSUNNY   48  39  71 E12       30.44F
ESTHERVILLE    MOSUNNY   35  29  78 E8        30.44F WCI  29
FORT DODGE *   MOSUNNY   53  32  44 S7        30.42F
MASON CITY     PTSUNNY   42  29  59 SE5       30.48F
FOREST CITY *  FAIR      43  28  56 E6        30.47F
IOWA FALLS *   FAIR      56  31  39 SE3       30.45F
$$

IAZ007>011-017>019-026>030-037>042-050>054-066-202000-
   NORTHEAST IOWA

CITY           SKY/WX    TMP DP  RH WIND       PRES   REMARKS
CEDAR RAPIDS   FAIR      58  26  29 E8        30.45F
CHARLES CITY * FAIR      46  28  49 CALM      30.49S
CLINTON *      FAIR      57  22  25 SE9       30.48F
DECORAH *      FAIR      46  27  46 VRB5      30.47F
DUBUQUE        FAIR      55  28  35 CALM      30.47F
MONTICELLO *   FAIR      57  25  28 SE6       30.47F
OELWEIN *      FAIR      54  32  43 SW7       30.47F
WATERLOO       FAIR      54  29  38 VRB5      30.45
$$

IAZ064-065-067-068-078-202000-
   EAST CENTRAL IOWA

CITY           SKY/WX    TMP DP  RH WIND       PRES   REMARKS
DAVENPORT      FAIR      58  18  21 VRB3      30.49F
IOWA CITY      FAIR      59  26  28 SE5       30.47F
MUSCATINE *    FAIR      59  19  21 SW5G16    30.47F
QUAD CITIES    FAIR      60  17  18 SE7       30.47F
$$

IAZ062-063-075>077-085>089-095>099-202000-
   SOUTHEAST IOWA

CITY           SKY/WX    TMP DP  RH WIND       PRES   REMARKS
BURLINGTON     CLOUDY    58  18  21 SE8       30.45F
FAIRFIELD *    MOSUNNY   59  23  25 SE10      30.44F
FORT MADISON * PTSUNNY   59  23  25 E9        30.46F
KEOKUK *       MOSUNNY   59  21  23 S8G16     30.45S
OSKALOOSA *    FAIR      58  23  25 SE8G18    30.44S
CENTERVILLE *    N/A     57  25  28 E9        30.44S
OTTUMWA        MOSUNNY   59  24  26 SE6       30.43F
WASHINGTON *   MOSUNNY   59  25  27 VRB6G14   30.46F
$$

ABBREVIATIONS USED IN REMARKS
   TC - TEMPERATURES IN CELSIUS
  WCI - WIND CHILL INDEX
   HX - HEAT INDEX
  VSB - VISIBILITY
$$





USA.gov is the U.S. government's official web portal to all federal, state and local government web resources and services.